Weather History for Tillamook, OR

Change the Weather History Date:

Friday, December 28, 2012

  Actual Average (KMMV) Record (KMMV)
Temperature  
Mean Temperature 44 °F 39 °F  
Max Temperature 46 °F 46 °F 62 °F (1917)
Min Temperature 41 °F 33 °F 18 °F (1978)
Degree Days  
Heating Degree Days 22 26  
Month to date heating degree days 706  
Since 1 July heating degree days 1928  
Cooling Degree Days 0 0  
Month to date cooling degree days 0  
Year to date cooling degree days 215  
Moisture  
Dew Point 42 °F    
Average Humidity 93    
Maximum Humidity 100    
Minimum Humidity 81    
Precipitation  
Precipitation 0.06 in 0.18 in 1.54 in (2010)
Month to date precipitation 5.58  
Year to date precipitation 39.23  
Sea Level Pressure  
Sea Level Pressure 30.11 in    
Wind  
Wind Speed 1 mph (East)    
Max Wind Speed 9 mph    
Max Gust Speed -    
Visibility 9 miles    
Events Rain    
T = Trace of Precipitation, MM = Missing Value Source: NWS Daily Summary

Daily Weather History Graph

Daily Weather History Graph

Search for Another Location

Airport:

Trip Planner

Search our weather history database for the weather conditions in past years. The results will help you decide how hot, cold, wet, or windy it might be!

Date:

Astronomy

Dec. 28, 2012 Rise Set
Actual Time 8:54 AM MST 5:39 PM MST
Civil Twilight 8:20 AM MST 6:13 PM MST
Nautical Twilight 7:43 AM MST 6:51 PM MST
Astronomical Twilight 7:07 AM MST 7:27 PM MST
Moon 6:24 PM MST (12/28) 8:50 AM MST (12/28)
Length of Visible Light 9h 53m
Length of Day
8h 45m
Full, 100% of the Moon is Illuminated
Dec 28
Full
Jan 4
Last Quarter
Jan 11
New
Jan 18
First Quarter
Jan 26
Full

Hourly Weather History & Observations

Time (MST) Temp. Windchill Dew Point Humidity Pressure Visibility Wind Dir Wind Speed Gust Speed Precip Events Conditions
12:15 AM 44.6 °F 43.1 °F 42.8 °F 93% 30.14 in 10.0 mi SE 3.5 mph - N/A   Overcast
12:35 AM 44.6 °F - 42.8 °F 93% 30.14 in 10.0 mi Calm Calm - N/A   Overcast
12:55 AM 44.6 °F - 42.8 °F 93% 30.14 in 10.0 mi Calm Calm - N/A   Overcast
1:15 AM 44.6 °F - 42.8 °F 93% 30.14 in 10.0 mi Calm Calm - N/A   Light Drizzle
1:35 AM 44.6 °F - 42.8 °F 93% 30.14 in 10.0 mi Calm Calm - 0.01 in Rain Light Rain
1:55 AM 44.6 °F - 42.8 °F 93% 30.14 in 10.0 mi Calm Calm - 0.01 in   Light Drizzle
2:15 AM 42.8 °F - 42.8 °F 100% 30.14 in 10.0 mi Calm Calm - N/A Rain Light Rain
2:35 AM 42.8 °F - 42.8 °F 100% 30.13 in 10.0 mi Calm Calm - N/A   Overcast
2:55 AM 42.8 °F - 42.8 °F 100% 30.13 in 10.0 mi Calm Calm - N/A   Overcast
3:15 AM 44.6 °F - 42.8 °F 93% 30.13 in 10.0 mi Calm Calm - N/A   Overcast
3:35 AM 44.6 °F - 42.8 °F 93% 30.13 in 10.0 mi Calm Calm - N/A   Overcast
4:15 AM 42.8 °F - 41.0 °F 93% 30.12 in 7.0 mi Calm Calm - N/A   Overcast
4:35 AM 42.8 °F - 42.8 °F 100% 30.11 in 10.0 mi Calm Calm - N/A   Overcast
4:55 AM 42.8 °F - 42.8 °F 100% 30.11 in 10.0 mi Calm Calm - N/A   Light Drizzle
5:35 AM 42.8 °F - 42.8 °F 100% 30.10 in 7.0 mi Calm Calm - N/A   Light Drizzle
5:55 AM 42.8 °F - 42.8 °F 100% 30.09 in 10.0 mi Calm Calm - N/A   Light Drizzle
6:15 AM 42.8 °F - 42.8 °F 100% 30.09 in 10.0 mi Calm Calm - N/A   Light Drizzle
6:35 AM 42.8 °F - 42.8 °F 100% 30.09 in 10.0 mi Calm Calm - N/A Rain Light Rain
6:55 AM 42.8 °F - 42.8 °F 100% 30.09 in 10.0 mi Calm Calm - N/A   Drizzle
7:15 AM 42.8 °F - 42.8 °F 100% 30.09 in 10.0 mi Calm Calm - 0.01 in   Drizzle
7:35 AM 42.8 °F - 42.8 °F 100% 30.09 in 10.0 mi Calm Calm - 0.01 in   Drizzle
7:55 AM 42.8 °F - 42.8 °F 100% 30.09 in 10.0 mi Calm Calm - 0.01 in   Drizzle
8:15 AM 42.8 °F - 42.8 °F 100% 30.09 in 10.0 mi Calm Calm - 0.01 in   Drizzle
8:35 AM 42.8 °F - 42.8 °F 100% 30.09 in 10.0 mi Calm Calm - 0.01 in Rain Rain
8:55 AM 42.8 °F 41.1 °F 41.0 °F 93% 30.09 in 7.0 mi ESE 3.5 mph - 0.01 in   Light Drizzle
9:15 AM 42.8 °F - 42.8 °F 100% 30.09 in 7.0 mi Calm Calm - 0.01 in   Drizzle
9:35 AM 42.8 °F - 41.0 °F 93% 30.10 in 7.0 mi Calm Calm - 0.01 in   Drizzle
9:55 AM 42.8 °F - 42.8 °F 100% 30.10 in 7.0 mi Calm Calm - 0.01 in   Drizzle
10:15 AM 42.8 °F - 42.8 °F 100% 30.11 in 7.0 mi Calm Calm - N/A   Drizzle
10:35 AM 42.8 °F - 42.8 °F 100% 30.11 in 7.0 mi Calm Calm - 0.01 in   Drizzle
10:55 AM 44.6 °F - 42.8 °F 93% 30.11 in 10.0 mi Calm Calm - 0.01 in Rain Light Rain
11:15 AM 44.6 °F - 42.8 °F 93% 30.12 in 10.0 mi Calm Calm - N/A   Drizzle
11:35 AM 44.6 °F - 42.8 °F 93% 30.12 in 10.0 mi Calm Calm - 0.01 in   Drizzle
11:55 AM 44.6 °F 42.2 °F 41.0 °F 87% 30.12 in 10.0 mi East 4.6 mph - 0.01 in   Light Drizzle
12:15 PM 44.6 °F 42.2 °F 41.0 °F 87% 30.11 in 10.0 mi East 4.6 mph - N/A   Light Drizzle
12:35 PM 44.6 °F 43.1 °F 41.0 °F 87% 30.11 in 10.0 mi ESE 3.5 mph - N/A Rain Light Rain
12:55 PM 44.6 °F - 41.0 °F 87% 30.11 in 10.0 mi Calm Calm - N/A   Light Drizzle
1:15 PM 46.4 °F 44.3 °F 41.0 °F 81% 30.11 in 10.0 mi East 4.6 mph - N/A   Light Drizzle
1:35 PM 46.4 °F 44.3 °F 41.0 °F 81% 30.10 in 10.0 mi East 4.6 mph - N/A   Light Drizzle
1:55 PM 46.4 °F 45.2 °F 41.0 °F 81% 30.10 in 10.0 mi East 3.5 mph - N/A   Light Drizzle
2:15 PM 46.4 °F 45.2 °F 41.0 °F 81% 30.10 in 10.0 mi NE 3.5 mph - N/A   Light Drizzle
2:35 PM 46.4 °F 44.3 °F 41.0 °F 81% 30.10 in 10.0 mi ENE 4.6 mph - N/A   Light Drizzle
2:55 PM 46.4 °F 44.3 °F 41.0 °F 81% 30.10 in 10.0 mi ENE 4.6 mph - N/A   Light Drizzle
3:35 PM 46.4 °F 43.5 °F 41.0 °F 81% 30.10 in 10.0 mi ENE 5.8 mph - N/A   Light Drizzle
3:55 PM 46.4 °F 43.5 °F 41.0 °F 81% 30.11 in 10.0 mi ENE 5.8 mph - N/A   Light Drizzle
4:15 PM 46.4 °F 42.9 °F 41.0 °F 81% 30.11 in 10.0 mi ENE 6.9 mph - N/A   Light Drizzle
4:55 PM 46.4 °F 42.9 °F 41.0 °F 81% 30.11 in 10.0 mi ENE 6.9 mph - N/A   Overcast
5:15 PM 44.6 °F 40.2 °F 41.0 °F 87% 30.11 in 10.0 mi ENE 8.1 mph - N/A   Overcast
5:35 PM 44.6 °F 41.4 °F 41.0 °F 87% 30.11 in 10.0 mi ENE 5.8 mph - N/A   Overcast
6:15 PM 44.6 °F 40.7 °F 39.2 °F 81% 30.11 in 10.0 mi ENE 6.9 mph - N/A   Overcast
6:35 PM 44.6 °F 39.7 °F 39.2 °F 81% 30.11 in 10.0 mi ENE 9.2 mph - N/A   Light Drizzle
6:55 PM 44.6 °F 42.2 °F 39.2 °F 81% 30.11 in 10.0 mi East 4.6 mph - N/A Rain Light Rain
7:15 PM 44.6 °F 43.1 °F 39.2 °F 81% 30.11 in 10.0 mi ESE 3.5 mph - N/A   Overcast
7:35 PM 42.8 °F 41.1 °F 41.0 °F 93% 30.12 in 10.0 mi ESE 3.5 mph - N/A   Light Drizzle
7:55 PM 42.8 °F 41.1 °F 39.2 °F 87% 30.12 in 10.0 mi East 3.5 mph - N/A   Light Drizzle
8:15 PM 42.8 °F - 39.2 °F 87% 30.12 in 10.0 mi Calm Calm - N/A   Overcast
8:35 PM 42.8 °F - 39.2 °F 87% 30.12 in 5.0 mi Calm Calm - N/A   Overcast
8:55 PM 41.0 °F - 41.0 °F 100% 30.12 in 10.0 mi Calm Calm - N/A   Overcast
9:15 PM 41.0 °F - 41.0 °F 100% 30.12 in 3.0 mi Calm Calm - N/A   Overcast
9:35 PM 41.0 °F - 41.0 °F 100% 30.13 in 5.0 mi Calm Calm - N/A   Light Drizzle
9:55 PM 41.0 °F - 41.0 °F 100% 30.13 in 3.0 mi Calm Calm - N/A   Light Drizzle
10:15 PM 41.0 °F - 41.0 °F 100% 30.13 in 7.0 mi Calm Calm - N/A   Light Drizzle
10:35 PM 41.0 °F - 41.0 °F 100% 30.13 in 5.0 mi Calm Calm - N/A   Drizzle
10:55 PM 41.0 °F - 41.0 °F 100% 30.14 in 10.0 mi Calm Calm - N/A   Light Drizzle
11:15 PM 41.0 °F - 41.0 °F 100% 30.14 in 10.0 mi Calm Calm - N/A   Overcast
11:35 PM 41.0 °F - 41.0 °F 100% 30.14 in 10.0 mi Calm Calm - N/A   Overcast
11:55 PM 41.0 °F - 39.2 °F 93% 30.14 in 10.0 mi Calm Calm - N/A   Overcast